Temp
-14 -14 -13 -13 -13 -13 -13 -12 -12 -12 -12 -12 -12 -12 -12 -12 -12 -12 -12 -12 -11 -11 -11 -12 -12 -12 -12 -13 -13 -13 -13 -13 -13 -13 -13 -13 -13 -13 -13 -13 -13 -13
-14 -14 -13 -13 -13 -13 -13 -12 -12 -12 -12 -12 -12 -12 -12 -12 -12 -12 -12 -12 -12 -12 -12 -12 -12 -12 -12 -13 -13 -13 -13 -13 -13 -13 -13 -13 -13 -13 -13 -13 -13 -13
-14 -14 -13 -13 -13 -13 -13 -12 -12 -12 -12 -12 -12 -12 -12 -12 -12 -12 -12 -12 -12 -12 -12 -12 -12 -12 -12 -12 -13 -13 -13 -13 -13 -13 -13 -13 -13 -13 -13 -13 -13 -13
-14 -13 -13 -13 -13 -13 -12 -12 -12 -12 -12 -12 -12 -12 -12 -12 -12 -12 -12 -12 -12 -12 -12 -12 -12 -12 -12 -12 -13 -13 -13 -13 -13 -13 -13 -13 -13 -13 -13 -13 -13 -13
-14 -13 -13 -13 -13 -13 -12 -12 -12 -12 -12 -12 -12 -12 -12 -12 -12 -12 -12 -12 -12 -12 -12 -12 -12 -12 -12 -12 -13 -13 -13 -13 -13 -13 -13 -13 -13 -13 -13 -13 -13 -13
-14 -13 -13 -13 -13 -13 -12 -12 -12 -12 -12 -12 -12 -12 -12 -12 -12 -12 -12 -12 -12 -12 -12 -12 -12 -12 -12 -13 -13 -13 -13 -13 -13 -13 -13 -13 -13 -12 -13 -13 -13 -13
-14 -13 -13 -13 -13 -13 -12 -12 -12 -12 -12 -12 -12 -12 -12 -12 -12 -12 -12 -12 -12 -12 -12 -12 -12 -12 -12 -13 -13 -13 -13 -13 -13 -13 -13 -13 -13 -12 -12 -13 -13 -13
-14 -14 -13 -13 -13 -13 -12 -12 -12 -12 -12 -12 -12 -12 -12 -12 -12 -12 -12 -12 -12 -12 -12 -12 -12 -12 -12 -13 -13 -13 -13 -13 -13 -13 -13 -13 -13 -13 -13 -13 -13 -13
-14 -14 -14 -13 -13 -13 -13 -12 -12 -12 -12 -12 -12 -12 -12 -12 -12 -12 -12 -12 -12 -12 -12 -12 -12 -12 -12 -13 -13 -13 -13 -13 -13 -13 -13 -13 -13 -13 -13 -13 -13 -13
-14 -14 -14 -13 -13 -13 -13 -12 -12 -12 -12 -12 -12 -12 -12 -12 -12 -12 -12 -12 -12 -12 -12 -12 -12 -12 -12 -13 -13 -13 -13 -13 -13 -13 -13 -13 -13 -13 -13 -13 -13 -13
-13 -13 -14 -13 -13 -13 -13 -12 -12 -12 -12 -12 -12 -12 -12 -12 -12 -12 -12 -12 -12 -12 -12 -12 -12 -12 -12 -13 -13 -13 -13 -13 -13 -13 -13 -13 -13 -13 -13 -13 -13 -13
-13 -14 -13 -13 -13 -13 -13 -12 -12 -12 -12 -12 -12 -13 -12 -12 -12 -12 -12 -12 -12 -12 -12 -12 -12 -12 -12 -13 -13 -13 -13 -13 -13 -13 -13 -13 -13 -13 -13 -13 -13 -13
-14 -14 -13 -13 -13 -13 -13 -12 -12 -12 -12 -12 -12 -13 -13 -12 -12 -12 -12 -12 -12 -12 -12 -12 -12 -12 -12 -13 -13 -13 -13 -13 -13 -13 -13 -13 -13 -13 -13 -13 -13 -13
-14 -14 -13 -13 -13 -13 -13 -13 -13 -12 -12 -12 -12 -13 -13 -12 -12 -12 -12 -12 -12 -12 -12 -12 -12 -12 -12 -13 -13 -13 -13 -13 -13 -14 -13 -13 -13 -13 -13 -13 -13 -13
-14 -13 -13 -13 -13 -13 -13 -13 -13 -12 -12 -12 -13 -13 -13 -13 -12 -12 -12 -12 -12 -12 -12 -12 -12 -12 -12 -13 -13 -13 -13 -13 -14 -14 -14 -14 -14 -13 -13 -13 -13 -13
-14 -13 -13 -13 -13 -13 -13 -13 -13 -13 -12 -12 -13 -13 -13 -13 -12 -12 -12 -12 -12 -12 -12 -12 -12 -12 -13 -13 -13 -13 -13 -13 -14 -14 -14 -14 -14 -14 -14 -13 -13 -13
-13 -13 -13 -13 -13 -13 -13 -13 -13 -13 -12 -12 -13 -13 -13 -13 -12 -12 -13 -13 -13 -13 -12 -12 -12 -12 -13 -13 -13 -13 -13 -14 -14 -14 -14 -14 -14 -14 -14 -14 -14 -14
-13 -13 -13 -13 -13 -13 -13 -13 -13 -13 -12 -13 -13 -13 -13 -13 -13 -13 -13 -13 -13 -13 -13 -12 -12 -12 -13 -13 -13 -13 -13 -14 -14 -14 -14 -14 -14 -14 -14 -14 -14 -14
-13 -13 -13 -13 -13 -13 -13 -13 -13 -13 -13 -13 -13 -13 -13 -13 -13 -13 -13 -13 -13 -13 -13 -12 -12 -12 -13 -13 -13 -13 -14 -14 -14 -14 -14 -14 -14 -14 -14 -14 -14 -14
-13 -13 -13 -14 -14 -14 -13 -13 -13 -13 -13 -13 -13 -13 -13 -13 -13 -13 -13 -13 -13 -13 -13 -12 -12 -13 -13 -13 -13 -13 -14 -14 -14 -14 -14 -14 -14 -14 -14 -14 -14 -14
-13 -14 -14 -14 -14 -14 -13 -13 -13 -13 -13 -13 -13 -13 -13 -13 -13 -13 -13 -13 -13 -13 -13 -13 -13 -13 -13 -13 -13 -14 -14 -14 -14 -14 -14 -14 -14 -14 -14 -14 -14 -14
-14 -14 -14 -14 -14 -13 -13 -13 -13 -13 -13 -13 -13 -13 -13 -13 -13 -13 -13 -13 -13 -13 -13 -13 -13 -13 -13 -13 -13 -14 -14 -14 -14 -14 -14 -14 -14 -14 -14 -14 -14 -14
-14 -14 -14 -14 -14 -13 -14 -14 -13 -13 -13 -13 -13 -13 -13 -13 -13 -13 -13 -13 -13 -13 -13 -13 -13 -13 -13 -13 -13 -14 -14 -14 -14 -14 -14 -14 -14 -14 -14 -14 -14 -14
-14 -14 -14 -14 -14 -14 -14 -14 -14 -13 -13 -13 -13 -13 -13 -13 -13 -13 -13 -13 -13 -13 -13 -13 -13 -13 -13 -13 -14 -14 -14 -14 -14 -14 -14 -14 -14 -14 -14 -14 -14 -14
-14 -14 -14 -14 -14 -14 -14 -14 -14 -13 -13 -13 -13 -13 -13 -13 -13 -13 -13 -13 -13 -13 -13 -13 -13 -13 -13 -14 -14 -14 -14 -14 -14 -14 -14 -14 -14 -14 -14 -14 -14 -14
-14 -14 -14 -14 -14 -14 -14 -14 -14 -14 -13 -13 -13 -13 -13 -13 -13 -13 -13 -13 -13 -13 -13 -13 -13 -13 -13 -14 -14 -14 -14 -14 -14 -14 -14 -14 -14 -14 -14 -14 -14 -14
Height
5797 5799 5801 5803 5806 5809 5810 5810 5810 5810 5812 5813 5813 5813 5813 5813 5813 5813 5813 5813 5813 5812 5812 5812 5812 5812 5813 5813 5813 5813 5813 5814 5814 5813 5813 5812 5812 5811 5810 5809 5808 5807
5793 5796 5798 5800 5803 5805 5806 5806 5806 5807 5809 5810 5811 5811 5810 5810 5810 5810 5811 5811 5810 5810 5810 5810 5810 5811 5811 5810 5810 5811 5811 5811 5811 5811 5811 5810 5809 5808 5808 5807 5806 5805
5790 5792 5795 5797 5800 5802 5803 5803 5803 5804 5806 5807 5808 5808 5808 5807 5808 5808 5808 5808 5808 5808 5808 5808 5808 5809 5809 5808 5808 5809 5809 5809 5809 5809 5808 5808 5807 5806 5805 5805 5804 5803
5786 5789 5792 5794 5796 5798 5799 5799 5799 5801 5803 5805 5805 5805 5805 5805 5805 5806 5806 5806 5806 5806 5806 5806 5806 5806 5806 5806 5806 5806 5806 5806 5806 5806 5805 5805 5804 5803 5803 5803 5802 5801
5783 5786 5788 5790 5792 5794 5796 5796 5796 5798 5800 5802 5802 5802 5802 5803 5803 5803 5803 5803 5803 5804 5804 5804 5804 5804 5804 5804 5803 5803 5803 5803 5803 5803 5803 5802 5801 5801 5801 5800 5799 5798
5779 5782 5784 5786 5788 5791 5792 5793 5793 5795 5797 5799 5799 5800 5800 5800 5801 5801 5801 5801 5802 5802 5802 5801 5801 5801 5802 5802 5802 5801 5801 5801 5801 5801 5800 5800 5799 5799 5798 5797 5797 5796
5776 5778 5780 5782 5785 5787 5789 5791 5791 5792 5794 5795 5796 5797 5797 5798 5798 5798 5798 5799 5799 5800 5799 5799 5799 5799 5799 5799 5799 5799 5799 5799 5799 5798 5798 5797 5797 5797 5796 5795 5794 5793
5772 5774 5776 5778 5781 5783 5786 5788 5787 5788 5791 5792 5794 5794 5794 5795 5795 5795 5796 5796 5797 5797 5797 5797 5797 5797 5797 5797 5797 5797 5796 5796 5796 5796 5795 5795 5795 5794 5794 5793 5792 5791
5768 5770 5772 5775 5778 5780 5783 5784 5784 5785 5787 5789 5790 5791 5791 5792 5793 5793 5793 5794 5795 5795 5795 5795 5795 5795 5795 5795 5795 5794 5794 5794 5794 5794 5793 5793 5793 5792 5791 5790 5789 5788
5764 5766 5768 5771 5774 5777 5779 5781 5780 5781 5784 5786 5787 5788 5788 5789 5790 5790 5790 5792 5792 5793 5793 5793 5793 5793 5793 5793 5792 5792 5792 5792 5792 5792 5791 5791 5790 5790 5788 5787 5786 5785
5760 5762 5765 5768 5771 5774 5776 5777 5777 5778 5780 5782 5784 5784 5785 5786 5787 5787 5788 5789 5789 5790 5790 5790 5790 5790 5790 5790 5790 5790 5789 5789 5789 5789 5789 5789 5788 5787 5786 5785 5784 5783
5757 5760 5762 5765 5768 5771 5772 5773 5774 5775 5776 5778 5780 5781 5782 5783 5784 5784 5785 5786 5786 5787 5787 5788 5788 5788 5788 5788 5787 5787 5787 5787 5787 5787 5786 5786 5785 5784 5783 5782 5782 5781
5754 5757 5759 5762 5765 5767 5768 5769 5770 5771 5773 5775 5777 5777 5778 5780 5780 5781 5782 5783 5783 5784 5784 5784 5785 5785 5785 5785 5785 5785 5784 5784 5784 5784 5783 5783 5782 5781 5781 5780 5779 5779
5751 5754 5756 5758 5761 5763 5764 5765 5767 5768 5769 5771 5773 5774 5775 5776 5777 5778 5779 5780 5780 5781 5781 5781 5782 5782 5782 5782 5782 5782 5782 5781 5781 5781 5780 5780 5779 5779 5778 5778 5777 5776
5748 5750 5752 5755 5758 5759 5760 5761 5763 5764 5765 5768 5769 5770 5772 5773 5774 5775 5776 5777 5777 5777 5778 5778 5779 5779 5780 5780 5780 5779 5779 5778 5778 5778 5777 5777 5776 5776 5776 5775 5774 5773
5743 5746 5749 5752 5754 5755 5756 5757 5759 5760 5762 5764 5766 5767 5768 5769 5770 5772 5773 5774 5774 5774 5775 5775 5776 5776 5777 5777 5777 5776 5776 5775 5775 5775 5774 5774 5773 5773 5773 5772 5771 5771
5738 5742 5746 5748 5749 5751 5752 5753 5754 5756 5758 5760 5762 5763 5765 5766 5767 5769 5770 5770 5771 5771 5772 5772 5773 5774 5774 5774 5774 5773 5773 5773 5772 5772 5772 5771 5771 5770 5770 5769 5769 5768
5735 5739 5742 5744 5745 5747 5748 5749 5750 5752 5754 5756 5758 5760 5761 5762 5764 5765 5766 5767 5768 5768 5769 5769 5770 5771 5771 5771 5771 5771 5770 5770 5769 5769 5769 5769 5768 5768 5767 5767 5766 5766
5731 5735 5738 5740 5741 5743 5744 5745 5746 5748 5750 5752 5754 5756 5758 5759 5760 5762 5763 5764 5765 5765 5765 5766 5767 5768 5768 5768 5768 5768 5767 5767 5767 5766 5766 5766 5765 5765 5765 5764 5763 5763
5728 5731 5734 5736 5737 5738 5739 5740 5742 5744 5745 5748 5750 5752 5754 5755 5756 5758 5759 5760 5761 5762 5762 5763 5764 5765 5765 5765 5765 5764 5764 5764 5764 5763 5763 5763 5763 5762 5762 5761 5760 5759
5723 5726 5729 5731 5732 5733 5735 5736 5737 5739 5741 5744 5746 5749 5750 5752 5753 5754 5756 5757 5758 5759 5759 5760 5761 5761 5761 5761 5761 5761 5761 5761 5761 5760 5760 5760 5760 5759 5759 5758 5757 5756
5718 5722 5724 5726 5727 5729 5730 5732 5733 5735 5738 5740 5742 5745 5747 5748 5749 5751 5752 5753 5754 5755 5756 5757 5757 5758 5758 5758 5758 5758 5758 5758 5757 5757 5757 5757 5756 5756 5755 5754 5753 5752
5714 5717 5719 5721 5722 5724 5726 5728 5729 5731 5734 5736 5739 5741 5743 5744 5746 5747 5748 5750 5751 5752 5752 5753 5754 5754 5754 5754 5754 5754 5755 5755 5754 5754 5754 5753 5753 5752 5752 5751 5750 5749
5709 5712 5714 5716 5718 5720 5722 5723 5724 5727 5730 5732 5735 5737 5738 5740 5742 5743 5744 5745 5747 5748 5749 5750 5751 5751 5751 5751 5751 5751 5752 5752 5751 5751 5751 5750 5750 5749 5748 5747 5746 5745
5704 5706 5709 5711 5713 5715 5717 5719 5720 5723 5726 5728 5730 5732 5734 5736 5738 5739 5740 5742 5743 5744 5745 5746 5747 5748 5748 5748 5748 5748 5748 5748 5748 5748 5747 5747 5746 5745 5744 5743 5742 5741
5698 5701 5704 5707 5708 5710 5712 5714 5716 5719 5722 5724 5726 5729 5731 5732 5733 5735 5736 5738 5739 5740 5742 5743 5744 5744 5744 5744 5744 5744 5745 5745 5745 5744 5744 5743 5743 5742 5741 5740 5739 5738
Wind_Speed
39 39 39 38 35 32 32 35 37 36 32 30 28 27 27 27 27 27 26 24 21 20 19 18 19 18 17 17 17 17 19 19 20 22 23 24 25 25 25 25 24 24
41 40 40 38 34 32 33 36 37 36 33 30 28 27 27 27 27 27 26 23 21 20 18 18 19 18 17 17 17 17 18 19 20 22 23 24 25 25 24 23 23 23
41 40 39 37 34 33 33 35 38 37 34 31 28 28 28 27 27 26 25 23 21 20 19 18 19 18 18 17 17 18 18 19 20 22 23 24 24 24 23 23 23 24
41 39 38 36 34 33 32 34 38 38 34 31 28 28 28 27 26 26 25 23 21 20 18 18 18 18 17 17 18 18 18 19 20 22 23 23 23 23 23 23 23 24
40 38 38 37 33 30 30 33 38 38 35 31 29 28 27 26 26 25 25 23 21 19 18 18 19 18 17 17 18 18 19 19 20 21 22 23 23 23 24 24 25 25
39 38 39 36 31 28 28 32 38 39 35 32 30 28 27 26 26 25 25 23 21 19 19 19 19 18 17 17 17 18 18 19 20 21 22 23 23 24 24 25 26 26
40 39 39 36 31 29 28 32 39 41 36 33 30 28 27 26 26 26 26 24 21 20 19 19 19 18 17 17 17 18 18 19 20 20 21 22 23 24 25 26 27 27
43 42 41 37 33 30 29 33 41 42 37 33 31 29 28 27 26 26 26 24 21 20 20 20 19 18 18 17 17 18 18 19 19 20 21 22 23 24 25 27 27 26
45 44 44 40 35 32 30 35 42 43 38 34 32 30 29 27 27 27 27 25 22 21 21 21 20 19 18 18 18 18 18 19 19 20 21 22 24 25 26 26 25 24
48 46 46 43 37 33 32 37 44 44 40 35 32 31 30 29 28 28 28 26 23 22 22 21 20 19 18 18 19 19 18 18 19 20 21 23 24 25 26 25 22 21
50 48 47 45 40 35 35 40 45 44 41 37 33 31 31 30 29 29 28 26 24 23 23 22 21 19 19 19 19 19 19 19 19 20 21 22 24 24 24 23 21 20
50 49 48 46 42 38 39 43 45 45 42 37 33 32 32 31 31 29 28 27 26 24 24 23 21 20 19 20 20 20 19 19 19 20 21 22 24 24 22 21 20 19
51 49 48 47 42 40 42 45 46 46 43 37 34 33 33 33 32 30 29 28 26 25 25 24 22 21 20 21 21 20 20 19 19 20 21 22 23 23 21 20 19 19
50 49 49 47 44 43 46 47 47 46 43 37 34 34 34 33 32 30 29 28 27 26 26 24 23 21 21 21 21 20 20 19 19 20 21 22 23 22 21 20 20 20
51 51 51 48 46 46 48 48 47 46 42 37 35 35 34 34 33 30 29 29 28 28 26 25 24 22 21 21 21 20 20 19 19 20 21 22 22 22 21 20 21 21
55 54 52 49 48 48 49 49 48 46 42 38 36 35 35 35 33 31 29 30 29 28 27 26 25 23 21 20 20 20 20 19 20 20 21 22 22 22 21 21 22 22
58 56 53 50 50 50 50 49 49 46 42 39 36 35 35 35 34 31 30 30 30 29 28 27 25 23 21 20 20 20 20 19 20 20 21 22 22 22 23 23 23 23
60 56 53 51 51 51 50 50 49 46 43 39 37 35 35 36 35 32 31 31 31 30 29 28 26 23 21 20 21 20 20 20 20 21 21 22 23 23 23 24 24 24
59 55 52 51 51 51 50 51 49 47 44 40 37 36 36 36 35 33 32 32 32 30 30 28 26 23 21 21 21 21 21 21 21 21 21 22 23 23 24 25 25 26
57 54 51 51 51 52 52 52 50 48 45 41 38 37 36 37 36 34 32 33 32 31 31 29 26 23 22 22 22 21 21 21 21 22 22 23 23 24 25 26 26 27
55 53 51 52 53 54 53 53 51 49 46 42 39 37 37 37 37 35 33 33 33 32 31 29 26 24 23 23 22 22 22 22 23 23 23 23 23 24 25 27 28 28
55 53 53 54 55 55 54 53 52 49 46 44 40 37 37 38 38 36 34 34 34 33 31 30 27 24 24 23 23 23 23 24 24 24 24 24 24 25 26 27 28 29
54 54 54 55 56 55 54 54 53 50 48 45 41 38 38 39 38 37 35 35 35 34 32 31 28 25 24 24 24 24 25 25 25 25 24 24 25 26 27 28 29 29
55 55 56 56 56 55 54 54 54 51 48 46 42 39 39 39 39 39 37 36 35 35 33 31 28 25 25 25 25 26 26 26 26 25 25 25 26 27 28 29 30 31
56 57 57 57 56 56 55 55 55 52 49 48 44 41 40 40 41 40 39 37 36 35 34 31 28 26 25 26 27 26 26 26 26 26 26 26 27 29 30 32 33 33
58 58 58 57 57 57 56 56 55 53 51 49 45 41 41 41 42 42 40 37 36 36 34 31 28 27 26 27 27 27 26 26 26 27 27 28 29 31 32 33 34 34
Wind_Direction
221 227 231 235 238 241 248 258 264 268 270 269 267 270 274 275 274 272 268 264 259 259 263 264 264 267 277 283 281 281 281 279 282 288 292 293 293 293 292 290 287 284
221 226 231 235 238 240 248 256 263 266 267 266 266 270 274 274 273 270 266 261 257 258 261 261 262 266 275 280 279 281 284 284 287 291 293 294 295 295 292 288 285 283
220 226 231 235 236 239 247 255 261 264 265 264 264 269 272 273 272 269 264 258 255 258 259 259 262 266 272 276 277 280 283 287 290 292 293 294 296 297 292 287 284 284
220 226 230 233 235 240 247 255 260 263 263 262 262 266 271 273 272 267 260 255 254 257 258 259 261 266 272 275 279 283 286 290 293 294 295 296 297 296 293 290 288 287
221 225 228 231 235 241 246 254 260 261 261 260 260 264 270 272 271 265 257 253 253 256 256 258 260 265 271 277 282 286 290 293 295 296 297 298 298 296 295 294 292 291
221 225 228 231 238 243 247 254 258 259 260 258 258 263 269 271 269 262 255 252 252 253 254 256 259 265 270 276 281 285 289 292 294 296 297 296 296 296 296 295 293 292
223 227 230 233 240 245 248 253 257 258 258 257 256 261 266 269 268 261 254 252 251 251 253 255 259 265 272 277 282 286 289 292 294 295 295 294 294 294 294 294 293 291
226 231 233 235 240 246 249 252 255 256 256 255 254 258 264 268 267 261 255 252 251 251 253 255 259 265 273 279 284 287 289 292 294 294 293 292 293 293 294 294 293 291
227 231 234 236 239 246 250 251 253 255 255 253 252 255 261 265 265 261 255 252 251 251 251 254 258 264 272 279 283 285 288 291 292 292 292 291 292 294 295 294 292 288
227 231 235 236 239 246 250 249 251 254 254 251 251 254 259 263 263 261 256 252 250 250 251 254 257 263 270 277 281 284 286 288 289 290 291 292 293 295 295 293 288 284
228 231 235 238 240 246 250 248 250 253 253 250 250 253 257 260 261 260 255 251 250 250 252 255 258 263 270 276 280 282 284 287 289 291 292 293 295 295 293 289 285 283
230 232 236 240 242 247 249 248 249 251 252 250 250 252 255 257 259 257 253 250 250 250 252 256 258 263 270 275 278 281 284 287 290 292 293 294 296 295 290 286 283 284
231 234 237 240 243 247 248 247 247 250 250 249 250 252 253 255 257 256 251 248 249 251 253 256 259 264 269 274 278 281 283 287 290 293 294 295 296 294 289 284 283 284
230 233 237 240 244 245 246 245 246 248 249 248 249 251 251 253 255 254 249 247 248 250 253 256 260 264 269 274 279 281 283 286 289 291 293 295 295 292 287 284 282 282
230 233 237 241 243 243 243 244 246 247 248 248 249 250 250 251 253 253 248 246 247 250 253 256 260 263 269 274 278 280 282 284 287 290 293 294 293 289 285 282 281 281
230 233 237 240 241 241 241 243 245 247 247 248 248 248 248 249 252 251 247 245 246 249 252 255 259 263 269 274 278 279 281 283 285 289 292 293 290 286 282 280 280 283
231 234 237 238 238 238 239 242 245 246 247 247 247 246 246 248 250 250 246 244 246 249 252 255 258 263 268 273 276 278 279 281 283 287 290 291 287 282 279 279 281 284
231 234 235 236 236 237 239 242 244 246 247 247 246 245 245 247 249 249 246 244 245 248 251 254 258 262 267 272 275 277 278 279 282 285 288 288 285 280 278 278 281 285
231 233 233 233 234 236 239 242 244 246 247 247 246 244 244 246 248 248 246 244 244 247 250 253 256 261 265 270 273 275 277 279 281 283 285 286 283 280 279 280 283 287
229 230 230 231 233 236 239 241 244 245 246 246 245 243 243 245 247 248 246 245 244 246 249 252 255 259 263 267 271 275 278 279 280 281 283 284 283 281 281 283 286 289
226 227 228 230 233 236 238 241 243 245 246 246 244 243 243 245 246 247 247 246 245 246 249 252 254 257 261 266 271 275 278 279 278 279 281 283 284 284 284 286 289 293
224 225 226 229 233 236 238 241 243 244 246 246 244 243 243 244 246 247 248 247 246 246 248 251 252 256 260 265 270 275 277 277 277 278 281 283 284 284 285 288 291 295
222 224 226 230 233 236 239 242 244 244 245 246 245 244 244 244 245 247 248 247 246 245 247 250 251 254 259 264 270 274 276 277 278 279 280 281 282 283 286 288 292 296
220 223 226 230 234 236 239 242 244 244 245 246 245 244 244 244 245 246 248 247 246 245 246 248 250 253 258 264 268 273 276 278 279 279 279 280 281 283 286 289 292 295
220 223 226 230 233 236 239 241 244 245 246 245 244 243 244 244 244 246 247 247 247 246 246 248 250 252 257 263 268 273 276 277 278 278 279 280 281 283 286 289 291 294
221 224 226 230 233 236 239 241 244 246 246 245 243 243 244 244 244 246 247 248 247 247 247 247 249 251 256 263 268 272 273 274 275 276 278 280 282 284 286 289 291 292